Location: Czarna Huta
(50.4618°N, 18.8696°E)
Time: 05:40:53
(UTC+00:00)

Daily predictions for brighter satellites

Satellite Brightness Start Highest point End
(mag) Time Altitude Azimuth Time Altitude Azimuth Time Altitude Azimuth
ATLAS 3B R/B 4.5 02:03:39 22° NNE 02:03:39 22° NNE 02:07:06 10° ENE
USA 215 4.5 02:13:09 10° ESE 02:16:36 34° ESE 02:16:36 34° ESE
CENTAUR R/B 4.1 02:29:13 34° N 02:29:40 34° NNE 02:37:04 10° ENE
Cosmos 2297 Rocket 4.0 02:41:37 25° ESE 02:41:37 25° ESE 02:43:56 10° SE
Cosmos 2227 Rocket 3.6 02:52:36 32° ESE 02:52:36 32° ESE 02:55:37 10° SE
Cosmos 2263 Rocket 4.4 02:57:29 16° N 02:59:15 18° NNE 03:03:03 10° ENE
NOSS 3-1 (C) 4.2 03:14:55 42° N 03:14:55 42° N 03:20:03 10° NE
Meteor 2-15 Rocket 4.4 03:29:12 19° S 03:33:48 81° E 03:39:59 10° NNE
Lacrosse 5 rocket 2.5 03:35:15 44° NE 03:35:15 44° NE 03:38:25 10° ENE
Cosmos 2184 Rocket 3.9 03:29:37 21° N 03:33:59 86° E 03:40:14 10° S
Meteor 1-24 Rocket 4.3 03:37:48 45° S 03:37:48 45° S 03:41:48 10° S
Cosmos 2154 Rocket 4.3 03:35:19 10° N 03:41:31 65° ENE 03:47:40 10° SSE
Cosmos 1943 Rocket 4.3 03:45:29 13° N 03:45:29 13° N 03:46:42 10° N
Cosmos 1602 Rocket 4.1 03:44:31 53° SE 03:44:31 53° SE 03:48:03 10° SSE
Cosmos 1980 Rocket 4.4 03:39:25 10° SSE 03:43:54 25° ESE 03:48:24 10° NE
USA 229 DEB 4.2 03:43:52 41° NNW 03:43:58 41° NNW 03:50:36 10° NE
USA 229 4.2 03:43:58 41° NNW 03:44:04 41° NNW 03:50:42 10° NE
Cosmos 44 Rocket 3.4 03:45:42 68° NE 03:45:42 68° NE 03:50:22 10° SE
Cosmos 1953 4.4 03:46:04 10° SSE 03:49:31 27° E 03:52:59 10° NNE
NOSS 3-1 (A) 3.8 03:49:58 46° NNW 03:49:59 46° NNW 03:56:34 10° NE
Cosmos 2369 Rocket 4.3 03:52:45 14° N 03:52:45 14° N 03:54:23 10° N
Cosmos 1697 Rocket 3.6 03:47:35 10° S 03:52:57 48° ESE 03:58:20 10° NE
Okean O Rocket 3.6 03:49:33 10° NNE 03:53:30 30° E 03:57:25 10° SSE
Cosmos 2344 4.1 03:46:29 10° SSW 03:53:47 58° ESE 04:01:47 10° NE
SKYMED 2 4.3 03:49:39 10° SSE 03:52:37 44° S 03:52:37 44° S
ATLAS 3B R/B 3.6 03:50:54 25° NNW 03:54:05 39° NNE 04:00:25 10° E
Meteor 1-22 Rocket 4.2 03:50:23 20° SSW 03:54:43 79° WNW 04:00:53 10° N
Cosmos 1610 Rocket 4.4 03:53:26 10° N 03:59:42 90° NW 04:06:02 10° S
NOSS 3-2 (A) 4.1 03:55:57 33° NW 03:59:45 77° NE 04:08:03 10° SE
USA 215 3.6 03:56:50 10° SSE 04:03:01 45° SW 04:03:57 42° WSW
PSLV R/B 4.0 04:02:20 10° NNE 04:05:35 59° NNE 04:05:35 59° NNE
Cosmos 2074 Rocket 4.0 04:00:44 10° NNW 04:06:51 56° W 04:12:54 10° SSW
Cosmos 2082 3.6 04:07:05 52° WNW 04:08:11 64° WSW 04:13:48 10° SSE
Cosmos 783 Rocket 4.3 04:10:20 24° SSW 04:13:34 82° WNW 04:18:49 10° NNE
CZ-2C R/B 4.0 04:09:45 10° N 04:11:37 21° NNW 04:11:37 21° NNW
Cosmos 1726 4.4 04:11:42 10° SSE 04:14:47 26° E 04:17:53 10° NNE
Cosmos 1295 Rocket 4.5 04:08:36 10° N 04:14:54 85° E 04:21:04 10° S
STARLINK-60 3.6 04:21:18 49° NNE 04:21:18 49° NNE 04:24:15 10° ENE
FALCON 9 DEB 3.5 04:21:23 55° NNE 04:21:23 55° NNE 04:24:36 10° ENE
USA 116 4.0 04:16:45 10° S 04:21:41 78° WSW 04:24:12 26° NNW
Helios 1A Rocket 4.3 04:17:53 10° NNE 04:21:47 41° E 04:25:42 10° S
CENTAUR R/B 3.4 04:16:24 22° NW 04:21:50 65° NE 04:30:24 10° ESE
Cosmos 2297 Rocket 3.2 04:23:30 27° SW 04:23:30 27° SW 04:26:59 10° SSW
CZ-4B R/B 4.3 04:19:07 10° N 04:21:32 28° NNW 04:21:32 28° NNW
Cosmos 1470 2.6 04:20:00 10° SSW 04:23:58 73° WNW 04:27:58 10° N
APEX 3.7 04:27:03 42° NNW 04:27:03 42° NNW 04:30:34 10° NNE
Cosmos 1825 Rocket 3.7 04:22:56 10° N 04:27:16 72° ENE 04:31:35 10° SSE
STARLINK-29 3.3 04:30:23 57° NNW 04:30:31 57° N 04:34:00 10° ENE
STARLINK-52 3.3 04:30:30 58° NNW 04:30:37 58° N 04:34:06 10° ENE
ALOS 2.1 04:28:52 10° N 04:33:32 70° WNW 04:38:10 10° SSW
Cosmos 2227 Rocket 3.2 04:34:29 26° WSW 04:34:29 26° WSW 04:38:21 10° SSW
USA 238 DEB 3.8 04:29:55 25° NW 04:34:22 74° SW 04:41:45 10° SSE
USA 238 3.8 04:30:01 25° NW 04:34:29 74° SW 04:41:51 10° SSE
Cosmos 773 Rocket 3.9 04:31:08 10° SSW 04:36:27 86° WNW 04:41:47 10° NNE
ADEOS Rocket 3.0 04:31:24 10° SSE 04:36:50 72° ENE 04:42:28 10° NNW
EXPRESS MD2 3.4 04:36:30 36° SSW 04:37:05 43° SSE 04:39:21 10° E
COSMOS 2455 3.9 04:31:25 10° S 04:37:07 46° ESE 04:42:51 10° NE
SOZ 4.2 04:36:59 59° NW 04:37:19 66° N 04:39:33 10° E
Cosmos 972 Rocket 4.4 04:31:46 10° NNW 04:38:27 89° WSW 04:44:19 10° SSE
Cosmos 2181 Rocket 4.5 04:34:56 10° S 04:41:00 63° E 04:47:13 10° NNE
Cosmos 2341 Rocket 3.9 04:35:03 10° NNW 04:41:23 82° W 04:47:37 10° S
COSMO-SKYMED 1 3.6 04:38:29 10° SSW 04:41:17 27° WSW 04:41:17 27° WSW
Cosmos 2263 Rocket 2.6 04:39:11 12° NNW 04:44:22 62° ENE 04:49:58 10° SE
Cosmos 1606 Rocket 3.8 04:44:19 10° S 04:48:45 73° E 04:53:12 10° NNE
STARLINK-46 4.3 04:50:24 16° S 04:50:24 16° S 04:51:12 10° SSE
Cosmos 2278 3.7 04:45:59 10° SSW 04:51:42 87° WNW 04:57:28 10° NNE
Cosmos 1726 Rocket 4.0 04:47:44 10° S 04:52:08 64° E 04:56:33 10° NNE
SL-4 R/B 1.8 04:51:23 37° W 04:52:30 56° SSW 04:55:53 10° SE
SL-8 Rocket 4.0 04:46:41 10° N 04:52:57 90° W 04:59:09 10° S
USA 32 3.9 04:48:04 10° N 04:53:20 79° W 04:58:34 10° S
NOSS 2-2 (D) 3.4 04:50:38 10° SW 04:54:15 71° SE 04:58:28 10° NE
STARLINK-43 3.2 04:54:31 30° WSW 04:56:16 85° NNW 05:00:00 10° ENE
BREEZE M DEB (TANK) 4.2 04:46:47 19° W 04:58:56 82° SSW 05:03:31 10° ESE
Cosmos 1844 Rocket 4.4 04:54:22 10° NNW 04:59:04 26° NE 05:03:44 10° E
Cosmos 2369 3.7 04:53:34 10° SW 04:59:14 61° NW 05:04:57 10° NNE
Cosmos 1656 4.0 04:55:44 18° WSW 04:59:20 39° NW 05:04:30 10° NNE
STARLINK-48 4.1 04:56:07 13° SW 04:59:30 54° SSE 05:03:18 10° ENE
NOSS 7 (D) 4.1 04:58:49 38° WNW 04:59:43 61° SW 05:02:58 10° SSE
PAYLOAD B 4.2 04:54:59 10° N 05:00:32 62° WNW 05:06:03 10° SSW
Nadezhda 1 Rocket 4.3 04:58:00 10° SW 05:03:42 41° WNW 05:09:26 10° N
CZ-2C R/B 4.4 04:59:12 10° SSE 05:03:43 56° ENE 05:08:11 10° N
NOSS 8 (E) 4.3 05:03:01 28° WSW 05:04:21 51° NW 05:07:26 10° NE
STARLINK-80 3.5 05:01:50 17° WSW 05:04:41 74° SSE 05:08:28 10° ENE
Cosmos 1538 Rocket 4.0 04:59:21 10° SSW 05:04:41 71° WNW 05:10:01 10° NNE
Abrixas rocket 2.4 05:05:22 27° WSW 05:06:42 53° S 05:09:40 10° ESE
SL-16 R/B 4.1 05:01:47 10° SSE 05:06:47 33° ESE 05:11:49 10° NE
Orbus 7S? 3.7 05:07:30 25° WNW 05:09:18 57° SW 05:15:21 10° SE
CZ-3 R/B 4.2 05:02:28 10° WSW 05:09:46 16° SSW 05:13:58 10° S
Meteor 1-11 4.3 05:04:13 10° N 05:09:49 82° ENE 05:15:27 10° SSE
METEOR-M 4.5 05:05:13 10° N 05:10:14 42° WNW 05:15:14 10° SW
CZ-4B R/B 3.2 05:06:24 10° N 05:11:58 66° WNW 05:17:25 10° SSW
Meteor 1-16 Rocket 4.3 05:06:28 10° SSW 05:12:26 84° WNW 05:18:21 10° NNE
Lacrosse 5 rocket 2.3 05:10:54 20° WNW 05:13:31 38° N 05:17:43 10° ENE
H-2A R/B 2.8 05:10:36 10° NNE 05:14:33 90° WNW 05:18:28 10° SSW
Cosmos 1758 4.4 05:14:29 10° WSW 05:17:41 22° WNW 05:20:53 10° NNW
Cosmos 2218 Rocket 4.0 05:12:21 10° NNW 05:18:45 72° W 05:25:04 10° S
Okean-O 3.9 05:18:29 10° NNE 05:22:46 46° E 05:27:02 10° S
NOAA 6 4.3 05:18:11 10° N 05:23:10 48° WNW 05:28:08 10° SW
Cosmos 1953 3.1 05:22:14 10° SW 05:25:50 30° WNW 05:29:29 10° N
Timation 1 Rocket 4.4 05:19:51 10° NW 05:25:50 68° WSW 05:31:48 10° SSE
YAOGAN 6 3.8 05:22:44 10° NNE 05:26:13 45° E 05:29:37 10° S
NOSS 3-2 (C) 4.2 05:19:38 12° NW 05:26:35 62° SW 05:34:46 10° SSE
Cosmos 1703 3.4 05:22:58 10° NNW 05:26:51 51° W 05:30:40 10° S
Cosmos 1980 Rocket 2.2 05:21:46 10° SW 05:27:26 67° WNW 05:33:07 10° NNE
FENGYUN 3A 4.4 05:25:07 10° N 05:29:47 31° WNW 05:34:28 10° WSW
Okean O Rocket 2.2 05:25:49 10° N 05:29:55 36° WNW 05:33:59 10° SW
Cosmos 1908 3.2 05:26:38 10° SSW 05:30:32 76° W 05:34:29 10° N
Cosmos 2228 3.2 05:26:32 10° SSW 05:30:49 49° WNW 05:35:07 10° N
Cosmos 1953 Rocket 4.1 05:28:10 10° NNW 05:32:19 38° W 05:36:25 10° SSW
NOSS 2-2 (C) 3.4 05:29:15 10° WSW 05:32:52 57° NW 05:37:11 10° NE
SAR-Lupe-2 4.1 05:31:06 10° SSE 05:34:37 61° ENE 05:38:11 10° N
SMAP 3.0 05:30:29 10° N 05:35:09 72° WNW 05:39:46 10° SSW
Cosmos 1300 4.1 05:32:27 10° SSE 05:36:03 41° E 05:39:41 10° NNE
Envisat 3.3 05:31:27 10° NNE 05:36:34 73° ESE 05:41:38 10° S
Cosmos 1697 Rocket 3.2 05:31:53 10° WSW 05:37:04 37° NW 05:42:17 10° NNE
Cosmos 1680 Rocket 3.6 05:34:06 10° SSW 05:39:26 85° ESE 05:44:48 10° NNE
Cosmos 1371 Rocket 4.0 05:34:28 10° NNW 05:39:46 79° WSW 05:45:04 10° SSE
STARLINK-61 4.5 05:36:02 10° SW 05:39:52 49° SSE 05:43:43 10° ENE
NOSS 3-4 (A) 4.1 05:37:09 10° SSW 05:43:01 61° SE 05:49:20 10° NE
NOSS 3-4 (C) 4.1 05:37:16 10° SSW 05:43:08 60° SE 05:49:26 10° NE
NOSS 2-2 (E) 3.8 05:40:44 10° WSW 05:44:20 42° NW 05:48:41 10° NE
ATLAS 3B R/B 2.7 05:38:36 10° NW 05:45:20 77° SW 05:52:12 10° SSE
CZ-2C R/B 3.5 05:41:22 10° SE 05:46:25 51° ENE 05:51:36 10° N
Cosmos 2058 3.9 05:44:06 10° N 05:48:12 49° ENE 05:52:16 10° SSE
Meteor 2-10 4.4 05:43:47 10° SW 05:49:06 46° WNW 05:54:19 10° N
Cosmos 1726 3.0 05:46:46 10° SW 05:49:57 27° WNW 05:53:08 10° NNW
STARLINK-26 3.5 05:47:48 10° WSW 05:51:18 70° SSE 05:54:50 10° ENE
DMSP B5D2-2 4.4 05:46:27 10° SSE 05:51:40 73° ENE 05:56:56 10° N
Genesis I 3.2 05:49:57 10° NW 05:53:50 69° SW 05:57:38 10° SSE
Cosmos 2112 Rocket 4.1 05:49:35 10° SSW 05:54:57 85° WNW 06:00:22 10° NNE
Helios 1A Rocket 4.0 05:53:27 10° N 05:56:47 24° WNW 06:00:06 10° WSW
STARLINK-60 3.1 05:54:23 10° WNW 05:57:46 81° NNE 06:01:08 10° ESE
FALCON 9 DEB 3.3 05:54:57 10° WNW 05:58:28 68° NNE 06:01:58 10° E
Cosmos 2366 rocket 4.5 05:53:18 10° NNW 05:59:09 40° W 06:05:00 10° SSW
Cosmos 2278 Rocket 4.1 05:55:11 10° NNW 05:59:31 22° NE 06:03:50 10° E
Cosmos 1420 Rocket 4.4 05:54:22 10° NNW 05:59:40 70° ENE 06:04:57 10° SSE
Cosmos 2058 Rocket 3.4 05:56:34 10° SW 06:00:46 42° WNW 06:04:58 10° N
